FFL356 MYGF-KFXE

Flight info

Callsign FFL356
Flight time 0h 25m
Altitude 12000
Route ZFP DEKAL9
Aircraft C750/M-SBDE3FGHRWXY/S

Departure

Time 2026-04-26 17:49
Airport Grand Bahama International Airport (MYGF)

Arrival

Time 2026-04-26 18:14
Airport Fort Lauderdale Executive Airport (KFXE)
Time Latitude Longitude Altitude Speed Heading
2026-04-26 17:23 26.54892 -78.70110 21 ft 0 kts 86°
2026-04-26 17:38 26.54895 -78.70108 23 ft 0 kts 46°
2026-04-26 17:38 26.54901 -78.70111 22 ft 0 kts 329°
2026-04-26 17:38 26.54907 -78.70131 22 ft 4 kts 284°
2026-04-26 17:39 26.54911 -78.70158 21 ft 4 kts 276°
2026-04-26 17:39 26.54914 -78.70186 21 ft 4 kts 276°
2026-04-26 17:39 26.54917 -78.70219 22 ft 5 kts 281°
2026-04-26 17:39 26.54937 -78.70245 22 ft 4 kts 348°
2026-04-26 17:40 26.54966 -78.70241 21 ft 5 kts 23°
2026-04-26 17:40 26.54984 -78.70229 21 ft 3 kts 43°
2026-04-26 17:40 26.55025 -78.70185 21 ft 13 kts 44°
2026-04-26 17:40 26.55092 -78.70119 21 ft 13 kts 40°
2026-04-26 17:41 26.55159 -78.70055 21 ft 13 kts 40°
2026-04-26 17:41 26.55225 -78.69993 21 ft 12 kts 40°
2026-04-26 17:41 26.55288 -78.69931 21 ft 12 kts 45°
2026-04-26 17:41 26.55351 -78.69867 21 ft 15 kts 41°
2026-04-26 17:42 26.55445 -78.69777 22 ft 18 kts 40°
2026-04-26 17:42 26.55540 -78.69684 20 ft 18 kts 42°
2026-04-26 17:42 26.55634 -78.69594 20 ft 18 kts 40°
2026-04-26 17:42 26.55725 -78.69505 21 ft 17 kts 40°
2026-04-26 17:43 26.55803 -78.69426 22 ft 10 kts 84°
2026-04-26 17:43 26.55824 -78.69363 23 ft 11 kts 60°
2026-04-26 17:43 26.55870 -78.69270 22 ft 15 kts 62°
2026-04-26 17:43 26.55917 -78.69171 21 ft 15 kts 62°
2026-04-26 17:44 26.55965 -78.69078 20 ft 11 kts 63°
2026-04-26 17:44 26.56002 -78.69005 22 ft 11 kts 59°
2026-04-26 17:44 26.56040 -78.68935 23 ft 10 kts 58°
2026-04-26 17:44 26.56076 -78.68859 21 ft 16 kts 63°
2026-04-26 17:45 26.56158 -78.68785 19 ft 16 kts 339°
2026-04-26 17:45 26.56251 -78.68777 19 ft 14 kts 49°
2026-04-26 17:45 26.56299 -78.68694 22 ft 12 kts 63°
2026-04-26 17:45 26.56337 -78.68614 20 ft 12 kts 61°
2026-04-26 17:46 26.56378 -78.68539 21 ft 11 kts 58°
2026-04-26 17:46 26.56416 -78.68469 22 ft 10 kts 58°
2026-04-26 17:46 26.56450 -78.68407 22 ft 8 kts 64°
2026-04-26 17:46 26.56476 -78.68343 23 ft 14 kts 65°
2026-04-26 17:47 26.56535 -78.68214 21 ft 19 kts 76°
2026-04-26 17:47 26.56536 -78.68166 22 ft 18 kts 92°
2026-04-26 17:47 26.56596 -78.68091 22 ft 7 kts 305°
2026-04-26 17:47 26.56595 -78.68104 23 ft 0 kts 239°
2026-04-26 17:48 26.56547 -78.68198 25 ft 43 kts 240°
2026-04-26 17:48 26.56271 -78.68745 19 ft 113 kts 240°
2026-04-26 17:48 26.55859 -78.69590 265 ft 124 kts 240°
2026-04-26 17:49 26.55465 -78.70469 645 ft 132 kts 240°
2026-04-26 17:49 26.54580 -78.71117 610 ft 189 kts 194°
2026-04-26 17:49 26.53201 -78.71476 1139 ft 215 kts 200°
2026-04-26 17:49 26.51800 -78.72292 1873 ft 238 kts 213°
2026-04-26 17:50 26.50386 -78.73390 2901 ft 251 kts 215°
2026-04-26 17:50 26.48926 -78.74481 4117 ft 254 kts 212°
2026-04-26 17:50 26.47404 -78.75534 5209 ft 262 kts 211°
2026-04-26 17:50 26.45841 -78.76618 6287 ft 267 kts 212°
2026-04-26 17:51 26.44282 -78.77725 7327 ft 271 kts 213°
2026-04-26 17:51 26.42679 -78.78864 8495 ft 275 kts 214°
2026-04-26 17:51 26.41045 -78.80016 9639 ft 281 kts 214°
2026-04-26 17:51 26.39369 -78.81196 10479 ft 293 kts 214°
2026-04-26 17:52 26.37568 -78.82469 10813 ft 320 kts 214°
2026-04-26 17:52 26.35605 -78.83858 11017 ft 348 kts 214°
2026-04-26 17:52 26.33524 -78.85317 11651 ft 354 kts 214°
2026-04-26 17:52 26.31394 -78.86808 11996 ft 373 kts 214°
2026-04-26 17:53 26.29130 -78.88408 12008 ft 398 kts 214°
2026-04-26 17:53 26.26798 -78.90048 12008 ft 404 kts 214°
2026-04-26 17:53 26.24409 -78.91718 12006 ft 407 kts 214°
2026-04-26 17:54 26.19606 -78.95094 12007 ft 409 kts 214°
2026-04-26 17:54 26.17196 -78.96787 12006 ft 410 kts 214°
2026-04-26 17:54 26.14782 -78.98477 12006 ft 410 kts 214°
2026-04-26 17:54 26.12359 -79.00175 11999 ft 412 kts 214°
2026-04-26 17:55 26.09942 -79.01870 12000 ft 411 kts 214°
2026-04-26 17:55 26.07516 -79.03568 12000 ft 411 kts 214°
2026-04-26 17:55 26.05093 -79.05265 12001 ft 412 kts 214°
2026-04-26 17:55 26.02668 -79.06960 11999 ft 412 kts 214°
2026-04-26 17:56 26.00243 -79.08655 11996 ft 412 kts 214°
2026-04-26 17:56 25.95389 -79.12049 11996 ft 412 kts 214°
2026-04-26 17:57 25.90573 -79.15409 11992 ft 411 kts 214°
2026-04-26 17:57 25.88206 -79.17193 11953 ft 410 kts 222°
2026-04-26 17:57 25.86379 -79.19579 11988 ft 406 kts 236°
2026-04-26 17:57 25.85006 -79.22296 11985 ft 404 kts 248°
2026-04-26 17:58 25.83937 -79.31126 11480 ft 350 kts 274°
2026-04-26 17:59 25.84124 -79.36107 10630 ft 301 kts 272°
2026-04-26 17:59 25.84195 -79.38369 10244 ft 287 kts 273°
2026-04-26 17:59 25.84278 -79.40563 9872 ft 282 kts 273°
2026-04-26 17:59 25.84358 -79.42734 9472 ft 280 kts 273°
2026-04-26 18:00 25.84432 -79.44884 9112 ft 277 kts 273°
2026-04-26 18:00 25.84505 -79.47018 8749 ft 277 kts 273°
2026-04-26 18:00 25.84580 -79.49155 8385 ft 277 kts 272°
2026-04-26 18:00 25.84654 -79.51290 8022 ft 276 kts 272°
2026-04-26 18:01 25.84727 -79.53423 7658 ft 276 kts 272°
2026-04-26 18:01 25.84798 -79.55520 7295 ft 275 kts 272°
2026-04-26 18:01 25.84870 -79.57638 6931 ft 274 kts 271°
2026-04-26 18:01 25.84942 -79.59743 6572 ft 273 kts 271°
2026-04-26 18:02 25.85014 -79.61856 6204 ft 273 kts 271°
2026-04-26 18:02 25.85054 -79.62565 6071 ft 272 kts 274°
2026-04-26 18:02 25.86180 -79.65782 6015 ft 272 kts 294°
2026-04-26 18:02 25.86982 -79.67696 6017 ft 274 kts 293°
2026-04-26 18:03 25.87777 -79.69618 6008 ft 274 kts 293°
2026-04-26 18:03 25.88570 -79.71514 6009 ft 274 kts 294°
2026-04-26 18:03 25.89379 -79.73436 6008 ft 274 kts 294°
2026-04-26 18:03 25.90187 -79.75362 6005 ft 275 kts 293°
2026-04-26 18:04 25.90993 -79.77288 6008 ft 275 kts 293°
2026-04-26 18:04 25.91799 -79.79215 6008 ft 275 kts 293°
2026-04-26 18:04 25.92599 -79.81125 6006 ft 271 kts 293°
2026-04-26 18:05 25.94189 -79.84929 6007 ft 272 kts 293°
2026-04-26 18:05 25.94983 -79.86830 6005 ft 271 kts 293°
2026-04-26 18:05 25.95777 -79.88730 5998 ft 270 kts 293°
2026-04-26 18:05 25.96568 -79.90625 5998 ft 272 kts 293°
2026-04-26 18:06 25.97361 -79.92528 5997 ft 272 kts 293°
2026-04-26 18:06 25.98156 -79.94432 5996 ft 272 kts 293°
2026-04-26 18:06 25.98939 -79.96309 5995 ft 272 kts 293°
2026-04-26 18:06 25.99733 -79.98215 5995 ft 271 kts 293°
2026-04-26 18:07 26.00528 -80.00124 5996 ft 273 kts 293°
2026-04-26 18:07 26.01320 -80.02027 5992 ft 271 kts 293°
2026-04-26 18:07 26.02114 -80.03932 5990 ft 270 kts 293°
2026-04-26 18:07 26.02380 -80.04572 5991 ft 271 kts 293°
2026-04-26 18:08 26.03694 -80.07733 5990 ft 271 kts 293°
2026-04-26 18:08 26.04490 -80.09634 5987 ft 271 kts 294°
2026-04-26 18:08 26.05278 -80.11501 5476 ft 266 kts 294°
2026-04-26 18:08 26.06074 -80.13384 4701 ft 270 kts 294°
2026-04-26 18:09 26.06881 -80.15284 4074 ft 276 kts 294°
2026-04-26 18:09 26.07679 -80.17159 3982 ft 262 kts 293°
2026-04-26 18:09 26.08196 -80.18369 3977 ft 263 kts 294°
2026-04-26 18:09 26.09233 -80.20811 3987 ft 264 kts 294°
2026-04-26 18:10 26.10011 -80.22657 3993 ft 264 kts 294°
2026-04-26 18:10 26.10791 -80.24493 3866 ft 258 kts 293°
2026-04-26 18:10 26.11575 -80.26303 3023 ft 263 kts 296°
2026-04-26 18:10 26.12906 -80.27754 2097 ft 278 kts 330°
2026-04-26 18:11 26.14733 -80.28179 1962 ft 261 kts 355°
2026-04-26 18:11 26.15953 -80.28218 2002 ft 266 kts 358°
2026-04-26 18:11 26.18366 -80.27862 1943 ft 248 kts 19°
2026-04-26 18:11 26.19613 -80.26785 1623 ft 223 kts 60°
2026-04-26 18:12 26.19935 -80.25725 1387 ft 209 kts 82°
2026-04-26 18:12 26.19827 -80.24283 1152 ft 167 kts 102°
2026-04-26 18:12 26.19648 -80.22753 836 ft 133 kts 102°
2026-04-26 18:12 26.19552 -80.21762 511 ft 128 kts 96°
2026-04-26 18:13 26.19545 -80.20820 407 ft 119 kts 92°
2026-04-26 18:13 26.19555 -80.20231 299 ft 114 kts 92°
2026-04-26 18:13 26.19624 -80.19359 217 ft 113 kts 83°
2026-04-26 18:13 26.19710 -80.18773 123 ft 114 kts 87°
2026-04-26 18:14 26.19800 -80.17683 23 ft 94 kts 89°
2026-04-26 18:14 26.19845 -80.17255 26 ft 26 kts 89°
2026-04-26 18:14 26.19843 -80.17124 28 ft 11 kts 114°
2026-04-26 18:14 26.19822 -80.17091 27 ft 1 kts 131°
2026-04-26 18:15 26.19810 -80.17076 27 ft 6 kts 130°
2026-04-26 18:15 26.19785 -80.17039 26 ft 0 kts 128°
2026-04-26 18:15 26.19777 -80.17028 27 ft 6 kts 130°
2026-04-26 18:15 26.19740 -80.16993 25 ft 2 kts 205°
2026-04-26 18:16 26.19728 -80.17006 25 ft 2 kts 240°
2026-04-26 18:16 26.19714 -80.17098 27 ft 6 kts 263°
2026-04-26 18:16 26.19711 -80.17141 26 ft 6 kts 267°
2026-04-26 18:17 26.19707 -80.17199 27 ft 8 kts 263°
2026-04-26 18:17 26.19689 -80.17229 27 ft 4 kts 180°
2026-04-26 18:17 26.19659 -80.17209 27 ft 8 kts 130°
2026-04-26 18:17 26.19616 -80.17147 26 ft 11 kts 126°
2026-04-26 18:18 26.19570 -80.17085 26 ft 10 kts 129°
2026-04-26 18:18 26.19525 -80.17023 25 ft 10 kts 130°
2026-04-26 18:18 26.19470 -80.16995 24 ft 9 kts 192°
2026-04-26 18:18 26.19440 -80.17010 24 ft 2 kts 263°
2026-04-26 18:19 26.19440 -80.17014 24 ft 0 kts 278°